• In Czech Republic
  • List of Countries
  • For 7 days
  • Water Temperature
  • Satellite Maps
  • Weather Map
  • Weather Widgets
  • user-avatar
    Login

    Hourly Weather La Massana

    Today, 23 June, Friday

    Time Temperature Precipitation Wind Pressure Humidity
    00:00 +12°C° 0 mm 1 mps 615 mmHg 81%
    01:00 +12°C° 0.1 mm 1 mps 615 mmHg 82%
    02:00 +12°C° 0.1 mm 1 mps 615 mmHg 83%
    03:00 +11°C° 0.1 mm 1 mps 615 mmHg 84%
    04:00 +13°C° 0.1 mm 1 mps 616 mmHg 81%
    05:00 +14°C° 0.1 mm 1 mps 617 mmHg 78%
    06:00 +15°C° 0 mm 0 mps 618 mmHg 71%
    07:00 +19°C° 0.1 mm 1 mps 619 mmHg 65%
    08:00 +21°C° 0.1 mm 1 mps 619 mmHg 58%
    09:00 +22°C° 0.1 mm 1 mps 620 mmHg 51%
    10:00 +23°C° 0.2 mm 2 mps 620 mmHg 48%
    11:00 +24°C° 0.2 mm 2 mps 621 mmHg 45%
    12:00 +25°C° 0.2 mm 2 mps 621 mmHg 43%
    13:00 +25°C° 0.7 mm 2 mps 620 mmHg 45%
    14:00 +25°C° 0.7 mm 2 mps 620 mmHg 47%
    15:00 +25°C° 0.7 mm 2 mps 620 mmHg 49%
    16:00 +24°C° 0.6 mm 2 mps 619 mmHg 55%
    17:00 +21°C° 0.6 mm 2 mps 619 mmHg 61%
    18:00 +20°C° 0.6 mm 2 mps 618 mmHg 67%
    19:00 +19°C° 0.3 mm 1 mps 618 mmHg 75%
    20:00 +15°C° 0.3 mm 1 mps 617 mmHg 83%
    21:00 +13°C° 0.3 mm 1 mps 616 mmHg 90%
    22:00 +13°C° 0.2 mm 1 mps 616 mmHg 91%
    23:00 +12°C° 0.2 mm 1 mps 616 mmHg 92%

    Tomorrow, 24 June, Saturday

    Time Temperature Precipitation Wind Pressure Humidity
    00:00 +12°C° 0.2 mm 1 mps 616 mmHg 93%
    01:00 +12°C° 0.1 mm 1 mps 616 mmHg 93%
    02:00 +11°C° 0.1 mm 1 mps 615 mmHg 93%
    03:00 +11°C° 0.1 mm 1 mps 615 mmHg 93%
    04:00 +12°C° 0 mm 1 mps 616 mmHg 89%
    05:00 +14°C° 0 mm 1 mps 616 mmHg 86%
    06:00 +15°C° 0 mm 1 mps 617 mmHg 83%
    07:00 +18°C° 0.1 mm 1 mps 617 mmHg 75%
    08:00 +18°C° 0.1 mm 2 mps 618 mmHg 66%
    09:00 +20°C° 0.1 mm 2 mps 619 mmHg 58%
    10:00 +21°C° 0.2 mm 3 mps 619 mmHg 55%
    11:00 +21°C° 0.2 mm 3 mps 619 mmHg 52%
    12:00 +22°C° 0.2 mm 3 mps 619 mmHg 49%
    13:00 +22°C° 0.5 mm 3 mps 619 mmHg 50%
    14:00 +22°C° 0.5 mm 3 mps 618 mmHg 51%
    15:00 +22°C° 0.5 mm 3 mps 618 mmHg 52%
    16:00 +21°C° 0.7 mm 3 mps 617 mmHg 57%
    17:00 +20°C° 0.7 mm 2 mps 617 mmHg 63%
    18:00 +19°C° 0.7 mm 2 mps 617 mmHg 69%
    19:00 +18°C° 0.2 mm 1 mps 616 mmHg 76%
    20:00 +14°C° 0.2 mm 1 mps 615 mmHg 83%
    21:00 +12°C° 0.2 mm 1 mps 615 mmHg 90%
    22:00 +12°C° 0.1 mm 1 mps 615 mmHg 90%
    23:00 +12°C° 0.1 mm 1 mps 615 mmHg 90%

    Day after tomorrow, 25 June, Sunday

    Time Temperature Precipitation Wind Pressure Humidity
    00:00 +11°C° 0.1 mm 1 mps 615 mmHg 90%
    01:00 +11°C° 0.2 mm 1 mps 614 mmHg 89%
    02:00 +11°C° 0.2 mm 1 mps 614 mmHg 87%
    03:00 +11°C° 0.2 mm 1 mps 614 mmHg 86%
    04:00 +12°C° 0.1 mm 1 mps 614 mmHg 84%
    05:00 +12°C° 0.1 mm 1 mps 615 mmHg 81%
    06:00 +13°C° 0.1 mm 1 mps 615 mmHg 79%
    07:00 +15°C° 0.1 mm 1 mps 616 mmHg 72%
    08:00 +17°C° 0.1 mm 2 mps 616 mmHg 65%
    09:00 +18°C° 0.1 mm 2 mps 617 mmHg 58%
    10:00 +19°C° 0.5 mm 2 mps 617 mmHg 56%
    11:00 +20°C° 0.5 mm 2 mps 617 mmHg 55%
    12:00 +21°C° 0.5 mm 3 mps 618 mmHg 53%
    13:00 +21°C° 1 mm 2 mps 617 mmHg 55%
    14:00 +21°C° 1 mm 2 mps 617 mmHg 56%
    15:00 +21°C° 1 mm 2 mps 616 mmHg 58%
    16:00 +20°C° 0.5 mm 2 mps 616 mmHg 61%
    17:00 +20°C° 0.5 mm 2 mps 615 mmHg 64%
    18:00 +20°C° 0.5 mm 1 mps 615 mmHg 68%
    19:00 +18°C° 0.4 mm 1 mps 614 mmHg 75%
    20:00 +15°C° 0.4 mm 1 mps 613 mmHg 81%
    21:00 +13°C° 0.4 mm 1 mps 612 mmHg 88%
    22:00 +13°C° 0.2 mm 1 mps 612 mmHg 88%
    23:00 +13°C° 0.2 mm 1 mps 612 mmHg 88%

    26 June, Monday

    Time Temperature Precipitation Wind Pressure Humidity
    00:00 +13°C° 0.2 mm 1 mps 612 mmHg 88%
    01:00 +13°C° 0.1 mm 1 mps 612 mmHg 87%
    02:00 +12°C° 0.1 mm 1 mps 611 mmHg 86%
    03:00 +12°C° 0.1 mm 1 mps 611 mmHg 85%
    04:00 +13°C° 0 mm 1 mps 611 mmHg 80%
    05:00 +13°C° 0 mm 2 mps 611 mmHg 74%
    06:00 +14°C° 0 mm 2 mps 611 mmHg 69%
    07:00 +16°C° 0 mm 2 mps 612 mmHg 59%
    08:00 +18°C° 0 mm 3 mps 612 mmHg 50%
    09:00 +20°C° 0 mm 3 mps 613 mmHg 41%
    10:00 +21°C° 0.1 mm 3 mps 613 mmHg 41%
    11:00 +21°C° 0.1 mm 4 mps 613 mmHg 42%
    12:00 +22°C° 0.1 mm 4 mps 613 mmHg 43%
    13:00 +22°C° 0.2 mm 4 mps 613 mmHg 42%
    14:00 +22°C° 0.2 mm 4 mps 613 mmHg 42%
    15:00 +22°C° 0.2 mm 4 mps 613 mmHg 42%
    16:00 +21°C° 0.2 mm 3 mps 612 mmHg 47%
    17:00 +20°C° 0.2 mm 2 mps 612 mmHg 52%
    18:00 +19°C° 0.2 mm 2 mps 611 mmHg 57%
    19:00 +16°C° 0.1 mm 2 mps 611 mmHg 66%
    20:00 +14°C° 0.1 mm 1 mps 610 mmHg 74%
    21:00 +11°C° 0.1 mm 1 mps 609 mmHg 83%
    22:00 +11°C° 0 mm 1 mps 609 mmHg 82%
    23:00 +10°C° 0 mm 1 mps 609 mmHg 81%

    27 June, Tuesday

    Time Temperature Precipitation Wind Pressure Humidity
    00:00 +10°C° 0 mm 1 mps 608 mmHg 81%
    01:00 +10°C° 0 mm 1 mps 608 mmHg 80%
    02:00 +10°C° 0 mm 1 mps 608 mmHg 80%
    03:00 +10°C° 0 mm 1 mps 608 mmHg 79%
    04:00 +11°C° 0 mm 1 mps 609 mmHg 75%
    05:00 +13°C° 0 mm 1 mps 609 mmHg 72%
    06:00 +14°C° 0 mm 1 mps 610 mmHg 68%
    07:00 +16°C° 0 mm 2 mps 611 mmHg 60%
    08:00 +19°C° 0 mm 3 mps 611 mmHg 52%
    09:00 +21°C° 0 mm 3 mps 612 mmHg 44%
    10:00 +22°C° 0 mm 4 mps 612 mmHg 41%
    11:00 +22°C° 0 mm 5 mps 612 mmHg 38%
    12:00 +23°C° 0 mm 5 mps 612 mmHg 35%
    13:00 +23°C° 0.6 mm 5 mps 612 mmHg 40%
    14:00 +22°C° 0.6 mm 5 mps 611 mmHg 45%
    15:00 +21°C° 0.6 mm 5 mps 610 mmHg 50%
    16:00 +20°C° 1 mm 4 mps 610 mmHg 55%
    17:00 +19°C° 1 mm 4 mps 609 mmHg 60%
    18:00 +17°C° 1 mm 3 mps 609 mmHg 65%
    19:00 +15°C° 0.6 mm 2 mps 608 mmHg 72%
    20:00 +12°C° 0.6 mm 2 mps 608 mmHg 80%
    21:00 +10°C° 0.6 mm 1 mps 607 mmHg 87%
    22:00 +10°C° 0.1 mm 1 mps 607 mmHg 86%
    23:00 +10°C° 0.1 mm 1 mps 607 mmHg 85%

    28 June, Wednesday

    Time Temperature Precipitation Wind Pressure Humidity
    00:00 +10°C° 0.1 mm 1 mps 607 mmHg 84%
    01:00 +9°C° 0.1 mm 1 mps 606 mmHg 83%
    02:00 +9°C° 0.1 mm 1 mps 606 mmHg 83%
    03:00 +9°C° 0.1 mm 1 mps 606 mmHg 82%
    04:00 +9°C° 0.1 mm 1 mps 606 mmHg 79%
    05:00 +10°C° 0.1 mm 1 mps 606 mmHg 77%
    06:00 +11°C° 0.1 mm 1 mps 607 mmHg 75%
    07:00 +12°C° 0.3 mm 2 mps 607 mmHg 71%
    08:00 +12°C° 0.3 mm 3 mps 608 mmHg 67%
    09:00 +13°C° 0.3 mm 3 mps 608 mmHg 63%
    10:00 +13°C° 1.1 mm 3 mps 608 mmHg 64%
    11:00 +13°C° 1.1 mm 4 mps 607 mmHg 66%
    12:00 +13°C° 1.1 mm 4 mps 607 mmHg 67%
    13:00 +13°C° 1.2 mm 4 mps 607 mmHg 69%
    14:00 +12°C° 1.2 mm 3 mps 607 mmHg 70%
    15:00 +12°C° 1.2 mm 3 mps 607 mmHg 71%
    16:00 +11°C° 1.3 mm 3 mps 606 mmHg 73%
    17:00 +10°C° 1.3 mm 3 mps 606 mmHg 75%
    18:00 +10°C° 1.3 mm 3 mps 606 mmHg 77%
    19:00 +8°C° 0.2 mm 3 mps 606 mmHg 80%
    20:00 +7°C° 0.2 mm 2 mps 606 mmHg 82%
    21:00 +6°C° 0.2 mm 2 mps 606 mmHg 85%
    22:00 +6°C° 0.1 mm 2 mps 605 mmHg 86%
    23:00 +6°C° 0.1 mm 1 mps 605 mmHg 88%
    Show more